| time (UTC) | temp F | wind direction | speed knots | gust knots | rain 1hr in | rain 24hr in | rain mn in | humidity % | barometer mb |
| 20260506103038 | 56 | 263 | 7.0 | 10.4 | 0.00 | 0.00 | 0.00 | 73 | 1012.6 |
| 20260506101522 | 56 | 250 | 5.2 | 8.7 | 0.00 | 0.00 | 0.00 | 74 | 1012.5 |
| 20260506100022 | 56 | 251 | 4.3 | 7.0 | 0.00 | 0.00 | 0.00 | 74 | 1012.6 |
| 20260506094519 | 57 | 281 | 6.1 | 9.6 | 0.00 | 0.00 | 0.00 | 73 | 1012.4 |
| 20260506093020 | 57 | 261 | 5.2 | 8.7 | 0.00 | 0.00 | 0.00 | 73 | 1012.3 |
| 20260506091517 | 57 | 271 | 5.2 | 9.6 | 0.00 | 0.00 | 0.00 | 73 | 1012.3 |
| 20260506090011 | 58 | 273 | 6.1 | 9.6 | 0.00 | 0.00 | 0.00 | 72 | 1012.2 |
| 20260506084514 | 58 | 280 | 7.0 | 11.3 | 0.00 | 0.00 | 0.00 | 71 | 1012.2 |
| 20260506083005 | 58 | 281 | 8.7 | 13.9 | 0.00 | 0.00 | 0.00 | 70 | 1012.2 |
| 20260506081503 | 59 | 264 | 7.8 | 12.2 | 0.00 | 0.00 | 0.00 | 69 | 1012.0 |
| 20260506080105 | 59 | 264 | 6.1 | 13.9 | 0.00 | 0.00 | 0.00 | 66 | 1012.0 |
| 20260506073053 | 60 | 267 | 7.0 | 11.3 | 0.00 | 0.00 | 0.00 | 63 | 1011.8 |
| 20260506071551 | 60 | 245 | 4.3 | 10.4 | 0.00 | 0.00 | 0.00 | 63 | 1011.8 |
| 20260506061533 | 61 | 276 | 4.3 | 7.8 | 0.00 | 0.00 | 0.00 | 64 | 1011.3 |
| 20260506044506 | 64 | 289 | 6.1 | 9.6 | 0.00 | 0.00 | 0.00 | 63 | 1010.9 |
| 20260506043003 | 64 | 285 | 5.2 | 8.7 | 0.00 | 0.00 | 0.00 | 61 | 1010.7 |
| 20260506041608 | 65 | 278 | 5.2 | 7.8 | 0.00 | 0.00 | 0.00 | 59 | 1010.5 |
| 20260506040054 | 65 | 287 | 3.5 | 6.1 | 0.00 | 0.00 | 0.00 | 60 | 1010.2 |
| 20260506034553 | 66 | 280 | 3.5 | 6.1 | 0.00 | 0.00 | 0.00 | 59 | 1010.1 |
| 20260506033043 | 68 | 288 | 1.7 | 4.3 | 0.00 | 0.00 | 0.00 | 57 | 1009.8 |
| 20260506031543 | 69 | 297 | 2.6 | 4.3 | 0.00 | 0.00 | 0.00 | 50 | 1009.7 |
| 20260506030039 | 72 | 13 | 1.7 | 4.3 | 0.00 | 0.00 | 0.00 | 46 | 1009.3 |
| 20260506024536 | 74 | 21 | 2.6 | 5.2 | 0.00 | 0.00 | 0.00 | 43 | 1009.1 |
| 20260506023047 | 75 | 23 | 1.7 | 5.2 | 0.00 | 0.00 | 0.00 | 41 | 1009.0 |
| 20260506021533 | 77 | 25 | 2.6 | 6.1 | 0.00 | 0.00 | 0.00 | 39 | 1008.9 |
| 20260506020022 | 78 | 28 | 3.5 | 8.7 | 0.00 | 0.00 | 0.00 | 37 | 1008.9 |
| 20260506014515 | 78 | 36 | 6.1 | 10.4 | 0.00 | 0.00 | 0.00 | 33 | 1008.8 |
| 20260506013010 | 80 | 32 | 5.2 | 8.7 | 0.00 | 0.00 | 0.00 | 30 | 1008.7 |
| 20260506011506 | 80 | 43 | 3.5 | 8.7 | 0.00 | 0.00 | 0.00 | 29 | 1008.7 |
| 20260506004556 | 81 | 41 | 5.2 | 10.4 | 0.00 | 0.17 | 0.00 | 31 | 1008.6 |
| 20260506003054 | 81 | 347 | 4.3 | 7.8 | 0.00 | 0.17 | 0.00 | 30 | 1008.6 |
| 20260506001552 | 81 | 43 | 4.3 | 9.6 | 0.00 | 0.17 | 0.00 | 29 | 1008.6 |
| 20260506000048 | 81 | 29 | 4.3 | 8.7 | 0.00 | 0.17 | 0.00 | 30 | 1008.7 |
| 20260505234538 | 81 | 9 | 1.7 | 7.8 | 0.00 | 0.17 | 0.00 | 32 | 1008.7 |
| 20260505233035 | 81 | 123 | 2.6 | 5.2 | 0.00 | 0.17 | 0.00 | 29 | 1008.8 |
| 20260505231545 | 81 | 98 | 2.6 | 7.0 | 0.00 | 0.17 | 0.00 | 28 | 1008.9 |
| 20260505230027 | 81 | 11 | 1.7 | 7.8 | 0.00 | 0.17 | 0.00 | 28 | 1008.9 |
| 20260505224520 | 81 | 84 | 4.3 | 8.7 | 0.00 | 0.17 | 0.00 | 27 | 1009.0 |
| 20260505223015 | 80 | 91 | 6.1 | 12.2 | 0.00 | 0.17 | 0.00 | 27 | 1009.2 |
| 20260505221512 | 80 | 37 | 6.1 | 9.6 | 0.00 | 0.17 | 0.00 | 31 | 1009.3 |
| 20260505220107 | 79 | 59 | 5.2 | 10.4 | 0.00 | 0.17 | 0.00 | 33 | 1009.4 |
| 20260505214502 | 79 | 77 | 3.5 | 8.7 | 0.00 | 0.17 | 0.00 | 32 | 1009.5 |
| 20260505213058 | 79 | 65 | 4.3 | 10.4 | 0.00 | 0.17 | 0.00 | 33 | 1009.6 |
| 20260505211554 | 79 | 19 | 7.0 | 11.3 | 0.00 | 0.17 | 0.00 | 34 | 1009.7 |
| 20260505210050 | 78 | 35 | 5.2 | 12.2 | 0.00 | 0.17 | 0.00 | 36 | 1009.7 |
| 20260505204544 | 78 | 13 | 2.6 | 7.0 | 0.00 | 0.17 | 0.00 | 36 | 1009.8 |
| 20260505203056 | 77 | 18 | 1.7 | 10.4 | 0.00 | 0.17 | 0.00 | 40 | 1009.9 |
| 20260505201542 | 76 | 138 | 0.9 | 8.7 | 0.00 | 0.17 | 0.00 | 38 | 1010.0 |
| 20260505200032 | 76 | 138 | 3.5 | 6.1 | 0.00 | 0.17 | 0.00 | 39 | 1010.0 |
| 20260505194526 | 75 | 307 | 1.7 | 7.8 | 0.00 | 0.17 | 0.00 | 41 | 1010.1 |
| 20260505193030 | 75 | 153 | 1.7 | 5.2 | 0.00 | 0.17 | 0.00 | 40 | 1010.2 |
| 20260505191518 | 74 | 123 | 1.7 | 8.7 | 0.00 | 0.17 | 0.00 | 43 | 1010.3 |
| 20260505190017 | 73 | 6 | 0.0 | 8.7 | 0.00 | 0.17 | 0.00 | 46 | 1010.5 |
| 20260505184509 | 72 | 80 | 3.5 | 7.8 | 0.00 | 0.17 | 0.00 | 44 | 1010.5 |
| 20260505183011 | 72 | 332 | 3.5 | 7.8 | 0.00 | 0.17 | 0.00 | 44 | 1010.5 |
| 20260505181600 | 71 | 31 | 2.6 | 7.0 | 0.00 | 0.17 | 0.00 | 46 | 1010.5 |
| 20260505174550 | 71 | 319 | 0.9 | 3.5 | 0.00 | 0.17 | 0.00 | 46 | 1010.3 |
| 20260505173051 | 70 | 293 | 1.7 | 5.2 | 0.00 | 0.17 | 0.00 | 48 | 1010.3 |
| 20260505171546 | 69 | 326 | 0.0 | 4.3 | 0.00 | 0.17 | 0.00 | 48 | 1010.3 |
| 20260505170100 | 69 | 315 | 0.0 | 4.3 | 0.00 | 0.17 | 0.00 | 51 | 1010.2 |
| 20260505164533 | 67 | 281 | 3.5 | 7.0 | 0.00 | 0.17 | 0.00 | 52 | 1010.2 |
| 20260505163033 | 67 | 302 | 1.7 | 6.1 | 0.00 | 0.17 | 0.00 | 55 | 1010.2 |
| 20260505161524 | 66 | 315 | 4.3 | 7.0 | 0.00 | 0.17 | 0.00 | 57 | 1010.2 |
| 20260505153010 | 63 | 282 | 4.3 | 7.8 | 0.00 | 0.17 | 0.00 | 62 | 1010.3 |
| 20260505151505 | 62 | 288 | 4.3 | 8.7 | 0.00 | 0.17 | 0.00 | 64 | 1010.2 |
| 20260505124521 | 0 | 0.0 | 0.0 | 0.00 | 0.17 | 0.00 | 1009.1 | ||
| 20260505123016 | 0 | 0.0 | 0.0 | 0.00 | 0.17 | 0.00 | 1008.9 | ||
| 20260505121515 | -90 | 266 | 1.7 | 2.6 | 0.00 | 0.17 | 0.00 | 80 | 1008.8 |
| 20260505120007 | 55 | 275 | 1.7 | 4.3 | 0.00 | 0.17 | 0.00 | 78 | 1008.7 |
| 20260505114508 | 56 | 273 | 3.5 | 6.1 | 0.00 | 0.17 | 0.00 | 77 | 1008.6 |
| 20260505113015 | 56 | 261 | 3.5 | 6.1 | 0.00 | 0.17 | 0.00 | 77 | 1008.5 |
| 20260505111504 | 57 | 283 | 3.5 | 7.0 | 0.00 | 0.17 | 0.00 | 77 | 1008.5 |